Tracking 31027 objects as of 19-Jul-2025
HD Live streaming from Space Station
objects crossing your sky now

DELTA 1 DEB

Track DELTA 1 DEB now!
10-day predictions


NORAD ID: 21291
Int'l Code: 1975-052AC
Perigee: 859.5 km
Apogee: 1,061.2 km
Inclination: 99.8 °
Period: 104.1 minutes
Semi major axis: 7331 km
RCS: 0.0114 m2 (small)
Launch date: June 12, 1975
Source: United States (US)
Launch site: AIR FORCE WESTERN TEST RANGE (AFWTR)

Note: This is SATELLITE DEBRIS
Your satellite tracking list
SL-16 DEB
Track 1 satellite(s)




NASA's NSSDC Master Catalog

Two Line Element Set (TLE):
1 21291U 75052AC  25199.87001674  .00000371  00000-0  35715-3 0  9998
2 21291  99.8480 342.7906 0137509 199.0161 315.4765 13.83012553721561
Source of the keplerian elements: AFSPC